01/05/2021,	00:00:00,	24.461,	21.800,	1019.997,	118.513,	4.010,	0.323,	0.101,	3.527,	0.271,	0.068,	0.046,	756.048,	739.302,	1250.494,	226.645,	4.177,	0.937,	4.210,	0.873,	5.627,	0.979,	5.745,	1.038,	0.931,	0.426,	0.838,	0.363,	0.893,	0.392,	0.927,	0.432,	22.464,	196.307,	179.295,	193.306,	178.349,	190.544,	209.210,	180.185,	176.140
01/05/2021,	00:15:00,	24.844,	21.900,	1019.855,	118.500,	4.023,	0.299,	0.077,	3.487,	0.262,	0.066,	0.042,	754.521,	737.672,	1248.609,	225.998,	3.944,	0.911,	4.083,	0.893,	5.468,	0.933,	5.570,	1.000,	0.996,	0.449,	0.829,	0.378,	0.848,	0.387,	0.859,	0.377,	22.490,	195.745,	179.168,	192.163,	177.488,	190.816,	208.857,	180.068,	175.799
01/05/2021,	00:30:00,	22.636,	22.000,	1020.580,	117.987,	4.080,	0.321,	0.083,	3.371,	0.279,	0.068,	0.051,	755.864,	738.729,	1249.969,	226.743,	4.112,	0.907,	4.014,	0.824,	5.543,	0.959,	5.619,	0.926,	0.938,	0.420,	0.783,	0.341,	0.924,	0.452,	0.902,	0.411,	22.901,	196.062,	179.291,	192.624,	178.084,	190.428,	207.569,	181.102,	177.339
01/05/2021,	00:45:00,	23.419,	22.200,	1020.840,	118.541,	4.151,	0.341,	0.093,	3.469,	0.278,	0.073,	0.048,	755.219,	740.100,	1250.774,	226.550,	4.158,	0.949,	4.100,	0.878,	5.520,	0.964,	5.771,	0.999,	1.028,	0.446,	0.862,	0.419,	0.822,	0.398,	0.904,	0.406,	22.523,	195.568,	179.416,	193.454,	178.252,	190.304,	209.576,	180.320,	176.496
01/05/2021,	01:00:00,	25.133,	22.500,	1019.604,	119.131,	4.058,	0.353,	0.104,	3.519,	0.322,	0.073,	0.049,	756.765,	738.836,	1251.166,	226.498,	4.127,	0.978,	4.204,	0.931,	5.559,	0.962,	5.732,	1.002,	1.016,	0.473,	0.826,	0.390,	0.876,	0.423,	0.883,	0.414,	22.569,	196.189,	178.625,	193.354,	178.168,	190.811,	209.049,	180.769,	176.696
01/05/2021,	01:15:00,	23.952,	22.700,	1018.185,	118.989,	4.071,	0.329,	0.082,	3.484,	0.301,	0.071,	0.041,	755.877,	737.469,	1249.244,	226.319,	3.999,	0.922,	3.980,	0.883,	5.547,	0.952,	5.709,	1.003,	1.021,	0.467,	0.916,	0.404,	0.861,	0.419,	0.932,	0.419,	22.683,	196.412,	179.245,	192.164,	178.363,	190.808,	207.863,	180.839,	175.686
01/05/2021,	01:30:00,	24.568,	22.900,	1020.412,	118.879,	4.212,	0.317,	0.090,	3.473,	0.281,	0.058,	0.041,	757.198,	740.372,	1252.117,	227.376,	4.136,	0.939,	4.225,	0.892,	5.478,	0.932,	5.795,	1.000,	0.926,	0.410,	0.811,	0.376,	0.850,	0.426,	0.909,	0.397,	22.639,	196.497,	179.431,	193.243,	179.335,	190.988,	208.639,	180.944,	176.607
01/05/2021,	01:45:00,	22.450,	23.100,	1019.730,	118.174,	4.077,	0.307,	0.074,	3.481,	0.277,	0.061,	0.037,	754.602,	737.208,	1247.696,	226.353,	4.164,	0.943,	3.914,	0.810,	5.487,	0.977,	5.667,	0.961,	0.987,	0.431,	0.804,	0.364,	0.844,	0.388,	0.879,	0.407,	22.682,	195.433,	179.456,	192.424,	177.729,	190.560,	207.720,	180.507,	175.945
01/05/2021,	02:00:00,	24.022,	23.300,	1018.246,	117.919,	4.000,	0.324,	0.081,	3.403,	0.273,	0.060,	0.031,	754.094,	739.935,	1250.266,	225.987,	4.037,	0.931,	3.973,	0.871,	5.568,	0.967,	5.681,	1.009,	0.971,	0.410,	0.852,	0.402,	0.853,	0.373,	0.877,	0.398,	22.856,	196.035,	179.657,	192.380,	178.637,	189.430,	207.817,	180.496,	177.404
01/05/2021,	02:15:00,	22.345,	23.400,	1018.887,	118.750,	4.031,	0.321,	0.080,	3.440,	0.260,	0.068,	0.038,	755.657,	737.564,	1249.000,	226.511,	4.134,	0.987,	4.067,	0.862,	5.448,	0.928,	5.561,	0.986,	1.012,	0.430,	0.779,	0.332,	0.886,	0.413,	0.888,	0.403,	22.609,	195.901,	179.392,	193.724,	178.008,	190.198,	207.356,	180.104,	176.417
01/05/2021,	02:30:00,	24.187,	23.600,	1017.513,	118.408,	4.027,	0.332,	0.087,	3.435,	0.283,	0.067,	0.049,	754.907,	739.366,	1250.194,	226.467,	4.069,	0.940,	4.109,	0.891,	5.497,	1.001,	5.634,	1.023,	0.934,	0.396,	0.829,	0.383,	0.816,	0.407,	0.870,	0.397,	22.841,	195.922,	179.692,	192.418,	178.977,	190.471,	208.272,	180.387,	176.047
01/05/2021,	02:45:00,	25.124,	23.800,	1018.333,	118.373,	4.047,	0.321,	0.094,	3.413,	0.310,	0.077,	0.052,	756.250,	737.523,	1248.967,	227.052,	4.144,	0.932,	4.008,	0.857,	5.636,	0.993,	5.534,	0.978,	0.973,	0.447,	0.830,	0.388,	0.817,	0.391,	0.864,	0.386,	22.396,	196.866,	179.433,	193.058,	178.217,	190.337,	207.420,	180.344,	176.043
01/05/2021,	03:00:00,	24.065,	23.900,	1019.169,	118.809,	4.010,	0.370,	0.107,	3.559,	0.300,	0.082,	0.057,	757.409,	738.557,	1251.334,	226.880,	4.049,	0.922,	4.084,	0.876,	5.517,	0.951,	5.675,	1.023,	0.998,	0.433,	0.857,	0.394,	0.876,	0.438,	0.870,	0.404,	22.851,	196.897,	179.249,	193.184,	179.114,	191.199,	207.209,	180.443,	176.722
01/05/2021,	03:15:00,	23.213,	24.200,	1018.391,	119.489,	4.141,	0.339,	0.091,	3.487,	0.309,	0.062,	0.042,	757.121,	737.740,	1250.327,	226.644,	4.149,	0.939,	4.104,	0.909,	5.507,	0.921,	5.712,	1.023,	0.987,	0.431,	0.821,	0.386,	0.868,	0.422,	0.911,	0.428,	22.620,	196.115,	180.426,	193.537,	178.427,	191.118,	206.524,	180.773,	176.012
01/05/2021,	03:30:00,	22.658,	23.100,	1017.372,	119.156,	4.095,	0.336,	0.098,	3.358,	0.293,	0.079,	0.048,	755.279,	738.469,	1249.642,	226.643,	3.884,	0.873,	3.947,	0.867,	5.353,	0.922,	5.596,	0.943,	0.982,	0.414,	0.832,	0.391,	0.897,	0.419,	0.930,	0.408,	22.629,	196.591,	180.238,	192.503,	178.331,	189.923,	206.748,	180.635,	176.683
01/05/2021,	03:45:00,	25.011,	22.600,	1018.414,	118.857,	4.138,	0.326,	0.090,	3.428,	0.298,	0.071,	0.044,	757.363,	738.621,	1251.896,	226.264,	4.194,	0.962,	4.114,	0.892,	5.443,	0.969,	5.638,	1.012,	0.997,	0.412,	0.850,	0.383,	0.864,	0.412,	0.897,	0.403,	22.789,	196.978,	180.033,	193.690,	179.244,	191.448,	206.886,	179.664,	176.061
01/05/2021,	04:00:00,	22.932,	22.200,	1016.575,	119.173,	4.204,	0.373,	0.103,	3.488,	0.309,	0.077,	0.050,	756.637,	737.647,	1249.992,	226.500,	4.131,	0.961,	4.140,	0.922,	5.369,	0.973,	5.773,	1.012,	1.018,	0.447,	0.871,	0.408,	0.840,	0.423,	0.937,	0.444,	22.979,	197.089,	179.224,	192.770,	179.717,	190.760,	205.926,	180.493,	176.480
01/05/2021,	04:15:00,	24.998,	22.300,	1017.841,	118.315,	4.116,	0.372,	0.113,	3.466,	0.296,	0.080,	0.053,	756.241,	741.425,	1253.132,	226.683,	4.121,	0.919,	4.178,	0.922,	5.338,	0.908,	5.717,	1.029,	0.990,	0.443,	0.899,	0.404,	0.888,	0.426,	0.901,	0.426,	22.562,	195.727,	180.297,	193.425,	179.227,	190.815,	208.468,	180.695,	177.078
01/05/2021,	04:30:00,	24.129,	21.800,	1016.178,	118.702,	4.065,	0.322,	0.093,	3.420,	0.284,	0.069,	0.044,	757.297,	738.471,	1250.722,	227.093,	4.147,	0.954,	4.032,	0.851,	5.529,	0.921,	5.781,	1.034,	0.997,	0.437,	0.816,	0.373,	0.881,	0.441,	0.869,	0.390,	22.686,	197.246,	180.305,	192.727,	178.289,	190.398,	207.471,	181.249,	176.005
01/05/2021,	04:45:00,	23.497,	21.900,	1015.812,	118.502,	4.082,	0.337,	0.091,	3.376,	0.283,	0.078,	0.051,	757.447,	739.297,	1252.139,	226.787,	4.120,	0.920,	4.088,	0.874,	5.318,	0.928,	5.819,	1.031,	0.979,	0.421,	0.803,	0.362,	0.878,	0.422,	0.900,	0.418,	22.831,	196.780,	179.925,	193.476,	179.083,	191.099,	207.041,	180.453,	176.820
01/05/2021,	05:00:00,	22.783,	22.000,	1017.208,	118.751,	4.086,	0.290,	0.078,	3.328,	0.227,	0.053,	0.037,	758.305,	740.847,	1254.241,	226.806,	4.211,	0.862,	4.080,	0.819,	5.552,	0.917,	5.542,	0.931,	0.940,	0.398,	0.792,	0.342,	0.868,	0.391,	0.867,	0.381,	22.931,	196.990,	179.807,	193.701,	178.996,	190.424,	208.276,	181.513,	177.227
01/05/2021,	05:15:00,	25.320,	21.800,	1017.319,	118.236,	4.054,	0.377,	0.091,	3.495,	0.287,	0.074,	0.042,	756.560,	741.145,	1253.280,	226.619,	4.158,	0.959,	4.018,	0.886,	5.522,	0.969,	5.747,	1.006,	1.001,	0.439,	0.796,	0.383,	0.834,	0.430,	0.884,	0.391,	23.096,	196.120,	179.735,	193.587,	178.958,	190.648,	209.124,	180.551,	177.004
01/05/2021,	05:30:00,	24.593,	21.700,	1016.579,	118.437,	4.139,	0.321,	0.078,	3.431,	0.263,	0.060,	0.038,	757.583,	739.200,	1252.084,	226.992,	4.036,	0.905,	4.055,	0.868,	5.375,	0.907,	5.626,	0.980,	0.963,	0.411,	0.822,	0.352,	0.832,	0.383,	0.940,	0.397,	22.623,	196.787,	180.582,	192.990,	178.074,	191.065,	207.517,	181.142,	176.611
01/05/2021,	05:45:00,	24.879,	21.800,	1017.818,	117.945,	4.115,	0.326,	0.081,	3.402,	0.286,	0.062,	0.039,	757.355,	741.862,	1254.081,	227.157,	4.112,	0.952,	4.192,	0.866,	5.480,	0.949,	5.717,	1.003,	1.054,	0.466,	0.782,	0.359,	0.824,	0.393,	0.919,	0.414,	22.645,	195.851,	180.159,	194.127,	179.730,	191.307,	208.149,	180.461,	177.404
01/05/2021,	06:00:00,	22.638,	21.800,	1016.018,	118.628,	4.008,	0.298,	0.077,	3.542,	0.283,	0.063,	0.040,	756.144,	739.825,	1252.300,	225.990,	4.069,	0.930,	4.011,	0.876,	5.342,	0.929,	5.737,	1.017,	0.963,	0.398,	0.843,	0.376,	0.839,	0.407,	0.921,	0.413,	22.826,	195.579,	179.707,	193.484,	179.114,	191.551,	208.636,	179.785,	176.079
01/05/2021,	06:15:00,	22.813,	21.700,	1016.640,	118.625,	4.181,	0.341,	0.101,	3.560,	0.297,	0.074,	0.057,	757.999,	740.904,	1254.154,	226.816,	4.140,	0.934,	4.168,	0.933,	5.520,	0.931,	5.617,	1.006,	1.048,	0.462,	0.848,	0.402,	0.906,	0.432,	0.879,	0.401,	22.586,	196.248,	179.217,	193.817,	179.298,	191.798,	208.907,	180.602,	177.219
01/05/2021,	06:30:00,	24.156,	21.500,	1017.548,	118.535,	4.254,	0.338,	0.094,	3.525,	0.297,	0.060,	0.040,	757.494,	740.849,	1253.515,	226.895,	4.113,	0.913,	4.148,	0.942,	5.475,	1.014,	5.754,	1.004,	0.999,	0.443,	0.912,	0.433,	0.919,	0.441,	0.923,	0.429,	22.989,	197.032,	180.645,	193.555,	179.208,	190.590,	207.932,	180.842,	176.765
01/05/2021,	06:45:00,	23.944,	21.700,	1017.727,	118.289,	4.127,	0.328,	0.086,	3.511,	0.272,	0.060,	0.039,	755.343,	739.456,	1250.943,	226.169,	4.151,	0.968,	4.061,	0.851,	5.408,	0.929,	5.568,	1.024,	1.027,	0.434,	0.860,	0.383,	0.864,	0.413,	0.869,	0.399,	22.777,	197.256,	179.435,	191.578,	178.778,	190.549,	207.740,	180.338,	177.160
01/05/2021,	07:00:00,	25.346,	21.800,	1017.391,	118.765,	4.077,	0.344,	0.093,	3.429,	0.296,	0.072,	0.049,	755.615,	737.783,	1250.072,	225.558,	4.047,	0.874,	4.083,	0.863,	5.386,	0.950,	5.605,	0.954,	0.998,	0.403,	0.828,	0.373,	0.878,	0.414,	0.888,	0.396,	22.997,	196.559,	179.072,	193.070,	178.224,	190.209,	208.107,	180.117,	176.010
01/05/2021,	07:15:00,	24.635,	21.500,	1017.860,	118.604,	3.924,	0.290,	0.077,	3.384,	0.249,	0.067,	0.049,	755.812,	740.716,	1251.909,	226.748,	4.057,	0.908,	4.039,	0.839,	5.477,	0.936,	5.773,	0.969,	0.979,	0.427,	0.811,	0.347,	0.824,	0.402,	0.821,	0.366,	22.856,	195.872,	179.766,	192.681,	178.825,	190.578,	207.503,	180.842,	178.179
01/05/2021,	07:30:00,	24.361,	21.800,	1017.925,	118.358,	4.118,	0.333,	0.092,	3.494,	0.322,	0.080,	0.050,	758.328,	740.365,	1252.923,	227.835,	4.122,	0.892,	4.115,	0.898,	5.453,	0.987,	5.706,	0.987,	0.991,	0.451,	0.850,	0.407,	0.915,	0.437,	0.937,	0.411,	22.919,	196.036,	179.665,	193.416,	178.979,	191.403,	208.332,	181.867,	177.079
01/05/2021,	07:45:00,	22.887,	21.600,	1016.994,	118.379,	4.137,	0.313,	0.090,	3.479,	0.283,	0.067,	0.044,	757.152,	740.254,	1253.237,	226.452,	4.121,	0.892,	4.074,	0.901,	5.393,	0.966,	5.678,	1.018,	1.042,	0.454,	0.827,	0.382,	0.841,	0.418,	0.900,	0.391,	22.881,	196.894,	180.170,	193.624,	178.252,	190.958,	208.449,	180.086,	177.040
01/05/2021,	08:00:00,	23.959,	21.800,	1018.211,	118.610,	4.182,	0.327,	0.077,	3.533,	0.264,	0.063,	0.041,	754.891,	739.311,	1249.861,	226.700,	4.119,	0.932,	4.001,	0.896,	5.400,	0.966,	5.648,	0.999,	1.053,	0.467,	0.840,	0.394,	0.848,	0.408,	0.881,	0.400,	22.792,	195.278,	179.120,	193.734,	179.144,	190.485,	208.189,	179.813,	176.560
01/05/2021,	08:15:00,	22.897,	21.800,	1016.613,	117.540,	3.991,	0.307,	0.076,	3.506,	0.270,	0.067,	0.043,	754.694,	738.874,	1249.520,	226.070,	4.130,	0.906,	4.129,	0.844,	5.544,	0.937,	5.622,	0.992,	0.994,	0.431,	0.833,	0.393,	0.797,	0.373,	0.927,	0.409,	22.722,	195.079,	178.765,	192.860,	178.795,	190.977,	208.421,	180.023,	176.555
01/05/2021,	08:30:00,	22.858,	21.900,	1017.239,	117.596,	4.045,	0.388,	0.089,	3.471,	0.283,	0.062,	0.033,	752.831,	738.961,	1248.153,	226.019,	4.109,	0.931,	4.015,	0.859,	5.492,	0.968,	5.582,	1.014,	0.959,	0.447,	0.869,	0.403,	0.854,	0.390,	0.869,	0.384,	22.812,	195.899,	179.082,	192.723,	179.007,	189.436,	208.045,	179.118,	176.465
01/05/2021,	08:45:00,	22.658,	22.000,	1017.574,	117.996,	4.192,	0.322,	0.089,	3.464,	0.298,	0.071,	0.050,	754.412,	737.947,	1248.320,	226.209,	4.208,	0.978,	4.132,	0.860,	5.334,	0.946,	5.688,	0.980,	1.071,	0.479,	0.838,	0.408,	0.880,	0.453,	0.917,	0.433,	22.491,	196.282,	179.500,	192.247,	177.915,	190.318,	207.447,	180.048,	176.741
01/05/2021,	09:00:00,	23.225,	21.900,	1018.253,	118.121,	4.053,	0.317,	0.079,	3.504,	0.270,	0.057,	0.038,	755.567,	737.818,	1249.465,	226.091,	4.046,	0.898,	4.034,	0.871,	5.482,	0.966,	5.687,	0.997,	0.960,	0.408,	0.820,	0.331,	0.879,	0.408,	0.910,	0.421,	22.577,	195.935,	179.034,	192.886,	178.957,	190.334,	207.530,	180.705,	175.963
01/05/2021,	09:15:00,	22.839,	22.000,	1017.025,	117.937,	4.177,	0.349,	0.083,	3.432,	0.266,	0.066,	0.041,	752.477,	737.882,	1247.416,	225.288,	4.128,	0.950,	3.977,	0.849,	5.402,	0.940,	5.665,	0.989,	0.962,	0.422,	0.854,	0.392,	0.890,	0.431,	0.847,	0.368,	22.757,	195.232,	179.488,	191.801,	178.377,	190.390,	208.059,	179.497,	175.561
01/05/2021,	09:30:00,	25.331,	22.000,	1017.933,	117.961,	4.156,	0.322,	0.088,	3.515,	0.283,	0.073,	0.043,	754.876,	737.036,	1248.556,	225.729,	4.028,	0.903,	4.022,	0.916,	5.526,	0.982,	5.555,	0.971,	1.025,	0.464,	0.850,	0.389,	0.829,	0.397,	0.905,	0.397,	22.858,	196.224,	179.247,	192.785,	178.878,	190.083,	207.073,	180.188,	175.537
01/05/2021,	09:45:00,	23.465,	22.100,	1018.452,	118.056,	4.181,	0.342,	0.100,	3.464,	0.290,	0.073,	0.050,	755.242,	738.041,	1249.106,	226.345,	4.148,	0.947,	4.148,	0.897,	5.443,	1.008,	5.677,	1.004,	0.999,	0.451,	0.833,	0.377,	0.854,	0.409,	0.942,	0.420,	22.475,	196.248,	179.111,	192.547,	177.997,	190.247,	208.337,	180.675,	176.254
01/05/2021,	10:00:00,	23.016,	22.000,	1018.482,	118.247,	4.012,	0.284,	0.069,	3.430,	0.262,	0.053,	0.036,	752.066,	735.672,	1244.639,	225.008,	4.057,	0.898,	4.049,	0.856,	5.623,	0.939,	5.700,	0.931,	1.010,	0.448,	0.836,	0.358,	0.834,	0.379,	0.877,	0.361,	22.562,	195.531,	178.716,	192.008,	177.565,	190.147,	207.507,	178.626,	175.465
01/05/2021,	10:15:00,	25.238,	22.000,	1018.307,	118.478,	4.114,	0.292,	0.063,	3.484,	0.276,	0.057,	0.037,	753.707,	737.434,	1247.802,	225.717,	4.120,	0.934,	4.109,	0.913,	5.312,	0.943,	5.614,	1.031,	0.962,	0.421,	0.866,	0.391,	0.802,	0.368,	0.906,	0.374,	22.483,	195.421,	178.864,	192.173,	178.152,	190.436,	207.321,	180.019,	176.728
01/05/2021,	10:30:00,	24.263,	21.900,	1016.636,	118.114,	4.073,	0.328,	0.084,	3.417,	0.270,	0.063,	0.042,	751.857,	737.026,	1245.989,	225.067,	4.125,	0.924,	4.045,	0.884,	5.424,	0.926,	5.633,	0.956,	1.011,	0.404,	0.851,	0.409,	0.867,	0.399,	0.870,	0.403,	22.799,	194.943,	178.359,	192.029,	177.881,	189.908,	207.944,	179.331,	176.441
01/05/2021,	10:45:00,	22.667,	21.900,	1016.613,	117.797,	4.189,	0.321,	0.087,	3.434,	0.266,	0.061,	0.042,	752.373,	735.505,	1245.048,	225.211,	4.134,	0.966,	4.113,	0.866,	5.352,	0.898,	5.599,	0.988,	0.947,	0.431,	0.859,	0.381,	0.859,	0.446,	0.832,	0.389,	22.641,	194.672,	178.854,	192.848,	177.470,	189.837,	206.976,	179.456,	175.811
01/05/2021,	11:00:00,	24.910,	21.800,	1017.853,	118.030,	4.122,	0.302,	0.078,	3.452,	0.277,	0.057,	0.038,	752.185,	734.813,	1243.908,	225.517,	4.086,	0.874,	3.971,	0.841,	5.332,	0.953,	5.612,	0.987,	0.980,	0.451,	0.809,	0.368,	0.833,	0.413,	0.912,	0.400,	22.444,	195.908,	178.613,	192.204,	177.868,	189.345,	206.451,	179.123,	175.488
01/05/2021,	11:15:00,	25.166,	21.700,	1018.620,	118.099,	4.092,	0.340,	0.089,	3.412,	0.312,	0.067,	0.042,	750.479,	735.424,	1243.179,	224.886,	4.159,	0.891,	4.094,	0.870,	5.401,	0.950,	5.647,	0.981,	0.990,	0.437,	0.819,	0.363,	0.823,	0.383,	0.913,	0.413,	22.637,	195.165,	178.353,	191.933,	178.310,	188.991,	206.961,	178.732,	175.407
01/05/2021,	11:30:00,	23.277,	21.600,	1019.573,	118.137,	3.978,	0.344,	0.104,	3.440,	0.308,	0.081,	0.058,	748.178,	732.887,	1239.029,	224.167,	4.136,	0.925,	4.038,	0.828,	5.521,	0.983,	5.637,	1.016,	1.026,	0.442,	0.852,	0.391,	0.870,	0.421,	0.926,	0.431,	22.676,	194.735,	178.092,	191.935,	176.180,	188.073,	206.942,	177.708,	175.313
01/05/2021,	11:45:00,	23.485,	21.600,	1019.588,	118.265,	4.119,	0.352,	0.080,	3.463,	0.281,	0.064,	0.036,	748.741,	732.297,	1239.590,	223.865,	4.058,	0.913,	4.002,	0.900,	5.477,	0.940,	5.587,	0.991,	0.936,	0.406,	0.820,	0.367,	0.871,	0.428,	0.890,	0.411,	22.978,	194.230,	177.572,	190.610,	176.460,	188.829,	207.036,	179.426,	174.859
01/05/2021,	12:00:00,	24.724,	21.600,	1020.088,	117.030,	4.123,	0.341,	0.109,	3.484,	0.300,	0.079,	0.058,	749.160,	733.270,	1240.205,	224.604,	4.109,	0.928,	4.008,	0.889,	5.449,	0.944,	5.629,	0.969,	1.032,	0.469,	0.796,	0.392,	0.914,	0.461,	0.891,	0.430,	22.730,	194.201,	178.097,	190.939,	176.622,	189.001,	206.849,	179.453,	175.387
01/05/2021,	12:15:00,	23.944,	21.600,	1018.036,	117.543,	4.181,	0.350,	0.101,	3.420,	0.307,	0.083,	0.050,	748.948,	732.335,	1239.313,	224.306,	4.060,	0.889,	3.989,	0.868,	5.574,	1.014,	5.608,	1.026,	0.982,	0.437,	0.828,	0.389,	0.844,	0.429,	0.917,	0.382,	22.712,	194.030,	177.352,	192.027,	177.366,	189.343,	206.803,	178.013,	174.417
01/05/2021,	12:30:00,	23.491,	21.500,	1018.326,	117.454,	3.940,	0.310,	0.091,	3.423,	0.263,	0.053,	0.041,	748.254,	732.384,	1239.092,	223.955,	4.134,	0.886,	3.975,	0.822,	5.252,	0.920,	5.620,	0.948,	0.948,	0.410,	0.793,	0.348,	0.826,	0.393,	0.868,	0.391,	23.037,	193.994,	178.112,	191.078,	176.460,	188.801,	206.829,	178.583,	174.545
01/05/2021,	12:45:00,	25.246,	21.500,	1019.577,	117.378,	4.034,	0.358,	0.099,	3.438,	0.271,	0.061,	0.043,	748.089,	733.315,	1238.849,	224.967,	4.082,	0.900,	4.096,	0.878,	5.281,	0.896,	5.564,	1.003,	1.023,	0.452,	0.822,	0.372,	0.862,	0.416,	0.883,	0.393,	22.630,	193.416,	178.080,	190.982,	177.203,	189.363,	206.915,	178.642,	174.707
01/05/2021,	13:00:00,	23.128,	21.400,	1020.264,	117.872,	4.067,	0.339,	0.100,	3.497,	0.320,	0.076,	0.047,	747.689,	733.142,	1238.514,	224.572,	4.156,	0.941,	4.004,	0.904,	5.570,	1.019,	5.564,	1.013,	0.969,	0.417,	0.864,	0.399,	0.880,	0.413,	0.946,	0.416,	22.355,	194.237,	177.838,	190.666,	177.204,	188.657,	206.757,	178.504,	175.052
01/05/2021,	13:15:00,	25.052,	21.300,	1020.615,	118.167,	4.107,	0.336,	0.101,	3.509,	0.287,	0.074,	0.051,	748.404,	732.639,	1239.296,	224.120,	4.082,	0.920,	4.062,	0.914,	5.569,	1.009,	5.580,	1.002,	0.953,	0.422,	0.854,	0.392,	0.858,	0.414,	0.877,	0.409,	22.731,	194.054,	177.471,	191.368,	177.036,	188.964,	207.019,	178.425,	174.800
01/05/2021,	13:30:00,	25.040,	21.200,	1020.386,	117.596,	4.027,	0.293,	0.083,	3.460,	0.279,	0.063,	0.032,	749.140,	733.214,	1239.286,	225.354,	4.009,	0.882,	4.020,	0.870,	5.438,	0.948,	5.756,	0.991,	0.951,	0.403,	0.772,	0.362,	0.846,	0.401,	0.875,	0.404,	22.705,	194.616,	177.738,	190.950,	177.098,	189.512,	207.398,	178.336,	174.607
01/05/2021,	13:45:00,	23.630,	21.100,	1018.482,	117.645,	4.098,	0.333,	0.099,	3.434,	0.286,	0.079,	0.053,	749.314,	734.798,	1241.114,	225.030,	4.167,	0.958,	4.082,	0.880,	5.472,	0.934,	5.788,	1.021,	1.019,	0.441,	0.807,	0.351,	0.871,	0.428,	0.882,	0.419,	22.686,	194.300,	177.656,	191.188,	177.399,	189.949,	208.490,	178.255,	174.891
01/05/2021,	14:00:00,	24.516,	21.000,	1020.939,	117.659,	3.911,	0.296,	0.086,	3.476,	0.293,	0.067,	0.042,	748.425,	732.236,	1238.298,	224.571,	4.056,	0.882,	4.052,	0.850,	5.360,	0.884,	5.679,	0.952,	0.996,	0.430,	0.799,	0.370,	0.872,	0.434,	0.902,	0.397,	22.353,	193.811,	178.283,	191.005,	176.667,	189.078,	206.328,	178.695,	174.603
01/05/2021,	14:15:00,	24.986,	20.900,	1019.264,	118.025,	4.170,	0.354,	0.093,	3.526,	0.287,	0.067,	0.039,	750.452,	734.406,	1241.688,	225.320,	4.256,	0.988,	4.044,	0.896,	5.591,	1.033,	5.531,	0.960,	1.026,	0.424,	0.852,	0.404,	0.880,	0.451,	0.922,	0.417,	22.758,	194.428,	177.606,	192.080,	177.755,	189.457,	207.619,	178.923,	175.142
01/05/2021,	14:30:00,	23.953,	20.700,	1020.615,	117.757,	4.141,	0.330,	0.086,	3.489,	0.287,	0.068,	0.039,	750.372,	734.215,	1241.686,	225.106,	4.197,	0.968,	4.032,	0.890,	5.512,	1.004,	5.702,	0.991,	1.012,	0.441,	0.832,	0.380,	0.897,	0.442,	0.827,	0.388,	22.646,	194.894,	178.721,	191.570,	176.860,	190.032,	207.583,	178.297,	174.726
01/05/2021,	14:45:00,	25.027,	20.500,	1020.508,	117.948,	3.974,	0.328,	0.084,	3.434,	0.311,	0.074,	0.043,	748.708,	733.713,	1240.258,	224.350,	4.034,	0.919,	4.120,	0.902,	5.374,	0.914,	5.732,	0.972,	0.992,	0.447,	0.856,	0.380,	0.873,	0.417,	0.892,	0.400,	22.868,	194.539,	178.537,	191.312,	176.696,	188.663,	207.593,	178.470,	174.510
01/05/2021,	15:00:00,	23.094,	21.200,	1020.630,	117.700,	4.101,	0.337,	0.090,	3.389,	0.271,	0.071,	0.048,	749.516,	736.508,	1243.224,	225.096,	3.960,	0.887,	4.016,	0.843,	5.377,	0.916,	5.784,	0.992,	0.953,	0.436,	0.852,	0.396,	0.846,	0.402,	0.897,	0.414,	22.535,	193.985,	178.165,	191.527,	177.289,	189.364,	208.716,	178.993,	175.896
01/05/2021,	15:15:00,	23.128,	21.300,	1020.470,	117.910,	4.208,	0.360,	0.103,	3.437,	0.298,	0.086,	0.052,	749.730,	734.153,	1240.890,	225.234,	4.224,	0.970,	4.097,	0.941,	5.435,	0.986,	5.670,	1.014,	0.989,	0.436,	0.813,	0.360,	0.897,	0.442,	0.930,	0.424,	22.859,	194.478,	178.201,	191.410,	177.031,	189.204,	207.217,	179.157,	175.322
01/05/2021,	15:30:00,	23.654,	21.500,	1020.626,	118.005,	4.076,	0.329,	0.094,	3.483,	0.323,	0.077,	0.042,	749.826,	735.450,	1242.130,	225.418,	4.073,	0.919,	4.076,	0.855,	5.434,	0.926,	5.642,	0.979,	0.967,	0.447,	0.800,	0.370,	0.849,	0.396,	0.909,	0.394,	22.690,	194.259,	178.609,	191.642,	177.305,	188.835,	207.659,	179.425,	175.537
01/05/2021,	15:45:00,	23.152,	21.700,	1019.138,	117.765,	4.099,	0.324,	0.081,	3.314,	0.248,	0.060,	0.043,	750.179,	737.440,	1244.433,	225.374,	3.968,	0.837,	4.012,	0.833,	5.420,	0.923,	5.645,	0.921,	0.994,	0.403,	0.838,	0.372,	0.798,	0.382,	0.918,	0.380,	22.512,	194.863,	179.125,	191.643,	178.122,	188.779,	208.552,	179.237,	175.126
01/05/2021,	16:00:00,	25.365,	21.700,	1020.203,	118.100,	4.233,	0.331,	0.073,	3.433,	0.310,	0.061,	0.034,	750.882,	736.247,	1244.274,	225.208,	4.170,	0.992,	4.093,	0.946,	5.450,	0.962,	5.649,	1.039,	0.968,	0.428,	0.827,	0.386,	0.930,	0.438,	0.864,	0.388,	23.026,	194.800,	177.975,	191.725,	177.039,	189.764,	209.226,	179.087,	175.625
01/05/2021,	16:15:00,	25.443,	21.700,	1020.527,	118.176,	4.047,	0.289,	0.081,	3.419,	0.253,	0.064,	0.043,	751.076,	737.353,	1245.092,	225.332,	4.044,	0.899,	4.108,	0.832,	5.497,	0.929,	5.679,	0.982,	1.018,	0.426,	0.812,	0.369,	0.952,	0.471,	0.884,	0.396,	22.515,	194.831,	178.384,	191.026,	177.420,	189.683,	208.471,	179.832,	176.654
01/05/2021,	16:30:00,	23.151,	21.600,	1018.738,	118.199,	4.111,	0.366,	0.104,	3.433,	0.272,	0.076,	0.052,	750.940,	732.823,	1241.669,	224.009,	4.063,	0.927,	4.094,	0.872,	5.553,	0.980,	5.865,	1.002,	1.010,	0.468,	0.900,	0.423,	0.901,	0.441,	0.934,	0.416,	22.274,	194.618,	177.500,	192.182,	176.877,	189.667,	207.105,	178.870,	174.955
01/05/2021,	16:45:00,	23.933,	21.600,	1020.676,	118.179,	4.106,	0.314,	0.081,	3.504,	0.263,	0.064,	0.041,	749.526,	735.609,	1242.256,	225.232,	4.027,	0.996,	4.134,	0.877,	5.429,	0.969,	5.553,	0.996,	0.984,	0.420,	0.807,	0.397,	0.887,	0.414,	0.953,	0.378,	22.602,	194.409,	177.577,	191.628,	177.934,	188.726,	207.948,	179.125,	175.812
01/05/2021,	17:00:00,	23.607,	21.600,	1018.475,	118.165,	4.095,	0.327,	0.088,	3.437,	0.302,	0.066,	0.041,	751.104,	736.439,	1244.310,	225.268,	4.179,	0.936,	4.083,	0.920,	5.500,	0.922,	5.603,	0.943,	1.039,	0.413,	0.866,	0.413,	0.930,	0.474,	0.886,	0.426,	22.705,	195.228,	178.913,	191.287,	177.550,	190.158,	207.774,	178.811,	175.817
01/05/2021,	17:15:00,	24.501,	21.700,	1020.916,	118.001,	3.967,	0.318,	0.087,	3.521,	0.306,	0.079,	0.047,	750.997,	736.737,	1244.587,	225.222,	4.164,	0.882,	3.953,	0.843,	5.504,	1.003,	5.772,	1.003,	0.989,	0.436,	0.833,	0.401,	0.851,	0.406,	0.945,	0.420,	22.590,	195.352,	179.189,	191.679,	177.764,	189.425,	208.040,	178.771,	175.446
01/05/2021,	17:30:00,	22.621,	21.600,	1019.222,	117.330,	4.083,	0.322,	0.087,	3.465,	0.294,	0.071,	0.048,	750.976,	736.850,	1243.866,	226.135,	4.170,	0.930,	4.030,	0.864,	5.472,	0.959,	5.615,	0.963,	1.018,	0.446,	0.861,	0.393,	0.853,	0.406,	0.908,	0.393,	22.662,	194.658,	178.822,	191.803,	177.147,	190.022,	208.750,	178.841,	175.776